Flag for Canada Weather past 2 weeks in Caledon, Ontario, Canada

Now
64 °F

Overcast.


Feels Like: 64 °F
Forecast: 57 / 72 °F
Wind: 15 mph from North

Location: Borden

Current Time: Jul 23, 2014 at 12:45:23 PM

Latest Report: Jul 23, 2014 at 12:00 PM


Visibility: 9 mi

Pressure: 29.94 "Hg

Humidity: 78%

Dew point: 57 °F

Location of CaledonLocation

Historic Weather in Caledon — Graph

°F

Caledon temperature yesterday

Maximum temperature yesterday: 86 °F (at 1:00 PM)
Minimum temperature yesterday: 61 °F (at 2:01 AM)
Average temperature yesterday: 72 °F

Past Weeks' High & Low Weather Summary

 TemperatureHumidityPressure
High86 °F (Jul 22, 1:00 PM)100% (Jul 22, 2:01 AM)30.26 "Hg (Jul 22, 2:01 AM)
Low41 °F (Jul 10, 6:00 AM)45% (Jul 21, 5:00 PM)29.42 "Hg (Jul 8, 4:00 PM)
Average65 °F74%29.98 "Hg
* Reported Jul 8 11:00 AM — Jul 23 11:00 AM, Caledon, Weather by CustomWeather, © 2014

Note: Actual official high and low records may vary slightly from our data, if they occured in-between our weather recording intervals... More about our weather records

Advertising

Caledon weather history for previous 24 hours

 ConditionsComfort  
Time TempWeatherWind HumidityBarometerVisibility
11:00 AM
Jul 23
64 °FOvercast.15 mph78%29.93 "Hg9 mi
10:00 AM64 °FOvercast.13 mph78%29.92 "Hg9 mi
9:00 AM63 °FOvercast.13 mph88%29.93 "Hg9 mi
8:00 AM64 °FOvercast.13 mph88%29.91 "Hg9 mi
7:00 AM64 °FOvercast.13 mph88%29.88 "Hg9 mi
6:00 AM66 °FLight rain. Passing clouds.6 mph94%29.86 "Hg9 mi
5:02 AM70 °FOvercast.8 mph88%29.86 "Hg8 mi
4:00 AM75 °FOvercast.8 mph78%29.83 "Hg9 mi
2:00 AM77 °FMostly cloudy.8 mph74%29.84 "Hg9 mi
1:00 AM75 °FPassing clouds.8 mph78%29.86 "Hg9 mi
12:00 AM75 °FPartly cloudy.8 mph74%29.87 "Hg9 mi
11:00 PM
Jul 22
77 °FOvercast.8 mph69%29.90 "Hg9 mi
10:00 PM79 °FMostly cloudy.9 mph65%29.92 "Hg9 mi
9:00 PM79 °FPassing clouds.12 mph65%29.88 "Hg9 mi
8:00 PM82 °FSunny.14 mph58%29.89 "Hg9 mi
7:00 PM84 °FSunny.12 mph55%29.91 "Hg9 mi
1:00 PM86 °FScattered clouds.13 mph46%30.03 "Hg9 mi
12:00 PM84 °FPassing clouds.10 mph48%30.05 "Hg9 mi
Weather by CustomWeather, © 2014

See weather overviewHow to use our weather pages